Погода в Среднеуральске

Россия / Свердловская область     56°59′30″N   60°28′37″E
темп.,
°C
ветер,
м/с
пор.,
м/с
влажн.,
%
обл.,
%
осадки,
мм/ч
давл.,
гПа
погр.,
м
15 мая, сб
сб1523:00+19з38465 0.0 1022150
02:00+17зюз265417 0.0 102292
05:00+16зюз28565 0.0 1022164
08:00+21зюз410456 0.0 1021388
11:00+27зюз69295 0.0 10201548
14:00+29зюз61026100 0.0 10192478
17:00+28зсз6930100 0.0 10192139
20:00+24з4114472 0.0 1018842
16 мая, вс
вс1623:00+20з31358100 0.0 1018406
02:00+20з4155483 0.0 1019459
05:00+18зюз41459100 0.0 1019370
08:00+21з4134894 0.0 1019496
11:00+27з610275 0.0 10191372
14:00+30з691930 0.0 10192898
17:00+30з581928 0.0 10183375
20:00+26зюз49315 0.0 1018550
17 мая, пн
пн1723:00+20зюз39475 0.0 1018178
02:00+19зюз311515 0.0 1018225
05:00+18зюз311563 0.0 1019226
08:00+23зюз494253 0.0 1018405
11:00+27зюз61030100 0.0 10181661
14:00+29з71120100 0.0 10172998
17:00+28з61126100 0.0 10162876
20:00+25з59403 0.0 1016989
18 мая, вт
вт1823:00+20з39555 0.0 1017228
02:00+18з266398 0.0 1017115
05:00+16з3870100 0.1 1017183
08:00+20зсз485562 0.0 1017422
11:00+25зсз59343 0.0 10161958
14:00+27зсз610265 0.0 10152827
17:00+27сз61025100 0.0 10153116
20:00+23ссз48360 0.0 1015802
19 мая, ср
ср1923:00+16св24569 0.0 101895
02:00+14св25666 0.0 1019117
05:00+12ссв388448 0.0 1021274
08:00+16всв456821 0.0 1022700
11:00+19всв33490 0.0 10221142
14:00+23в32385 0.0 10221768
17:00+24вюв333413 0.0 10211976
20:00+21юв36450 0.0 1021334